Overview Statistics Trail Chart Weather Telemetry Raw packets
 

This is the latest recevied weather packets stored in our database for station/object WE1C. If no packets are shown the sender has not sent any weather packets the latest 10 day(s).

<< 19 20 21 22 23 24 25 >>
Time Temp. Humidity Pressure Rain* Wind** Luminosity Snow
1788478249 21.11° C 98% 1040.3 hPa 0 mm - 0 W/m² -
1788477944 21.11° C 97% 1040.5 hPa 0 mm - 0 W/m² -
1788477639 21.11° C 98% 1040.5 hPa 0 mm - 0 W/m² -
1788477333 21.11° C 96% 1040.7 hPa 0 mm - 2 W/m² -
1788477027 21.11° C 96% 1040.6 hPa 0 mm - 3 W/m² -
1788476724 21.67° C 96% 1040.6 hPa 0 mm - 5 W/m² -
1788476422 21.67° C 95% 1040.7 hPa 0 mm - 6 W/m² -
1788476120 21.67° C 95% 1040.7 hPa 0 mm - 6 W/m² -
1788475816 21.67° C 95% 1040.7 hPa 0 mm - 7 W/m² -
1788475512 21.67° C 94% 1040.5 hPa 0 mm - 10 W/m² -
1788475208 22.22° C 94% 1040.2 hPa 0 mm - 11 W/m² -
1788474907 22.22° C 94% 1040.6 hPa 0 mm - 13 W/m² -
1788474606 22.22° C 93% 1040.4 hPa 0 mm - 18 W/m² -
1788474301 22.78° C 93% 1040.5 hPa 0 mm - 24 W/m² -
1788474000 22.78° C 92% 1040.6 hPa 0 mm - 32 W/m² -
1788473695 22.78° C 92% 1040.7 hPa 0 mm - 32 W/m² -
1788473393 22.78° C 91% 1040.5 hPa 0 mm - 32 W/m² -
1788473088 23.33° C 91% 1040.8 hPa 0 mm - 35 W/m² -
1788472785 23.33° C 90% 1041.2 hPa 0 mm - 42 W/m² -
1788472482 23.89° C 90% 1041 hPa 0 mm - 57 W/m² -
1788472180 23.89° C 90% 1041 hPa 0 mm - 46 W/m² -
1788471875 23.89° C 90% 1041.1 hPa 0 mm - 48 W/m² -
1788471575 23.89° C 90% 1040.7 hPa 0 mm - 45 W/m² -
1788471271 23.89° C 90% 1040.9 hPa 0 mm - 54 W/m² -
1788470967 23.89° C 89% 1041 hPa 0 mm - 62 W/m² -

* Rain latest hour (hover to see other rain measurements)
** Current wind speed in m/s (hover to see current wind gust speed)